CW0146 Weather Reports


time (UTC)temp
C
wind
direction
speed
KPH
gust
KPH
rain 1hr
cm
rain 24hr
cm
rain mn
cm
humidity
%
barometer
mb
20260509222954 32 115 1.6 3.2 0.00 0.00 0.00 54 1008.0
20260509222454 32 109 1.6 4.8 0.00 0.00 0.00 54 1008.0
20260509221954 32 150 3.2 3.2 0.00 0.00 0.00 54 1008.0
20260509221454 32 185 3.2 3.2 0.00 0.00 0.00 55 1008.0
20260509220954 32 125 3.2 6.4 0.00 0.00 0.00 54 1008.0
20260509220454 32 149 1.6 4.8 0.00 0.00 0.00 54 1008.0
20260509215954 32 178 3.2 4.8 0.00 0.00 0.00 51 1008.0
20260509215454 32 190 1.6 3.2 0.00 0.00 0.00 51 1008.0
20260509214954 32 192 3.2 4.8 0.00 0.00 0.00 48 1008.0
20260509214454 32 197 3.2 3.2 0.00 0.00 0.00 52 1008.0
20260509213954 32 132 1.6 3.2 0.00 0.00 0.00 49 1008.0
20260509213454 32 144 0.0 1.6 0.00 0.00 0.00 49 1008.0
20260509212954 32 304 0.0 1.6 0.00 0.00 0.00 50 1009.0
20260509212454 32 100 3.2 4.8 0.00 0.00 0.00 51 1009.0
20260509211954 32 101 1.6 3.2 0.00 0.00 0.00 53 1009.0
20260509211454 32 80 3.2 4.8 0.00 0.00 0.00 49 1009.0
20260509210955 32 74 1.6 4.8 0.00 0.00 0.00 52 1009.0
20260509210454 32 215 0.0 3.2 0.00 0.00 0.00 53 1009.0
20260509205954 32 223 0.0 3.2 0.00 0.00 0.00 51 1009.0
20260509205454 32 0 0.0 0.0 0.00 0.00 0.00 51 1009.0
20260509204954 32 111 1.6 3.2 0.00 0.00 0.00 49 1009.0
20260509204454 31 117 0.0 4.8 0.00 0.00 0.00 49 1009.0
20260509203954 31 177 1.6 6.4 0.00 0.00 0.00 48 1009.0
20260509203454 31 199 3.2 4.8 0.00 0.00 0.00 47 1009.0
20260509202954 30 192 1.6 4.8 0.00 0.00 0.00 47 1009.0
20260509202454 30 56 3.2 4.8 0.00 0.00 0.00 48 1009.0
20260509201954 30 86 1.6 4.8 0.00 0.00 0.00 53 1009.0
20260509201454 30 159 3.2 8.0 0.00 0.00 0.00 52 1010.0
20260509200955 30 197 3.2 6.4 0.00 0.00 0.00 54 1010.0
20260509200454 29 134 3.2 6.4 0.00 0.00 0.00 54 1010.0
20260509195955 29 89 3.2 9.7 0.00 0.00 0.00 52 1010.0
20260509195454 29 81 4.8 8.0 0.00 0.00 0.00 51 1010.0
20260509194954 30 166 4.8 8.0 0.00 0.00 0.00 59 1011.0
20260509194454 31 190 6.4 9.7 0.00 0.00 0.00 58 1011.0
20260509193954 31 279 1.6 4.8 0.00 0.00 0.00 60 1010.0
20260509193454 31 86 0.0 3.2 0.00 0.00 0.00 60 1010.0
20260509192954 31 78 1.6 4.8 0.00 0.00 0.00 60 1010.0
20260509192454 31 96 1.6 3.2 0.00 0.00 0.00 61 1010.0
20260509191954 31 290 3.2 6.4 0.00 0.00 0.00 59 1010.0
20260509191454 31 193 1.6 3.2 0.00 0.00 0.00 65 1010.0
20260509190954 31 304 3.2 8.0 0.00 0.00 0.00 63 1010.0
20260509190454 31 283 1.6 4.8 0.00 0.00 0.00 65 1010.0
20260509185955 31 317 3.2 8.0 0.00 0.00 0.00 64 1010.0
20260509185454 30 299 4.8 8.0 0.00 0.00 0.00 66 1010.0
20260509184954 30 316 4.8 11.3 0.00 0.00 0.00 66 1010.0
20260509184454 30 2 1.6 6.4 0.00 0.00 0.00 68 1010.0
20260509183954 30 338 3.2 4.8 0.00 0.00 0.00 68 1010.0
20260509183454 31 318 3.2 9.7 0.00 0.00 0.00 66 1010.0
20260509182954 31 24 0.0 3.2 0.00 0.00 0.00 64 1011.0
20260509182454 31 264 1.6 8.0 0.00 0.00 0.00 64 1010.0
20260509181955 31 264 1.6 4.8 0.00 0.00 0.00 65 1010.0
20260509181454 31 334 1.6 4.8 0.00 0.00 0.00 64 1011.0
20260509180954 31 297 1.6 4.8 0.00 0.00 0.00 66 1010.0
20260509180454 31 300 1.6 4.8 0.00 0.00 0.00 65 1011.0
20260509175954 30 209 3.2 6.4 0.00 0.00 0.00 67 1010.0
20260509175454 30 285 4.8 8.0 0.00 0.00 0.00 66 1011.0
20260509174954 30 213 1.6 3.2 0.00 0.00 0.00 68 1011.0
20260509174456 30 233 3.2 4.8 0.00 0.00 0.00 69 1011.0
20260509173954 30 236 3.2 6.4 0.00 0.00 0.00 68 1011.0
20260509173454 28 247 3.2 4.8 0.00 0.00 0.00 70 1010.0
20260509172954 28 222 3.2 4.8 0.00 0.00 0.00 71 1011.0
20260509172454 28 317 3.2 6.4 0.00 0.00 0.00 71 1011.0
20260509171954 29 237 4.8 6.4 0.00 0.00 0.00 70 1011.0
20260509171454 29 299 1.6 3.2 0.00 0.00 0.00 70 1011.0
20260509170954 29 214 3.2 6.4 0.00 0.00 0.00 70 1011.0
20260509170454 29 214 0.0 4.8 0.00 0.00 0.00 71 1011.0
20260509165955 28 218 6.4 9.7 0.00 0.00 0.00 72 1011.0
20260509165456 28 290 4.8 9.7 0.00 0.00 0.00 73 1012.0
20260509164954 28 6 1.6 4.8 0.00 0.00 0.00 74 1011.0
20260509164454 28 341 3.2 4.8 0.00 0.00 0.00 73 1011.0
20260509163954 28 251 3.2 4.8 0.00 0.00 0.00 74 1011.0
20260509163454 28 287 3.2 8.0 0.00 0.00 0.00 73 1012.0
20260509162954 28 246 3.2 6.4 0.00 0.00 0.00 75 1011.0
20260509162454 28 171 1.6 6.4 0.00 0.00 0.00 75 1011.0
20260509161954 27 238 6.4 11.3 0.00 0.00 0.00 75 1011.0
20260509161454 27 240 4.8 6.4 0.00 0.00 0.00 79 1011.0
20260509160954 27 244 3.2 8.0 0.00 0.00 0.00 79 1011.0
20260509160454 27 249 4.8 6.4 0.00 0.00 0.00 79 1011.0
20260509155956 27 176 4.8 9.7 0.00 0.00 0.00 79 1011.0
20260509155455 27 165 6.4 11.3 0.00 0.00 0.00 80 1011.0
20260509154954 26 189 8.0 14.5 0.00 0.00 0.00 81 1011.0
20260509154454 26 198 4.8 9.7 0.00 0.00 0.00 82 1011.0
20260509153954 26 175 6.4 11.3 0.00 0.00 0.00 82 1011.0
20260509153454 26 218 3.2 6.4 0.00 0.00 0.00 85 1011.0
20260509152954 25 186 6.4 11.3 0.00 0.00 0.00 85 1011.0
20260509152454 25 198 4.8 9.7 0.00 0.00 0.00 87 1011.0
20260509151955 25 191 6.4 11.3 0.00 0.00 0.00 87 1011.0
20260509151454 25 198 3.2 8.0 0.00 0.00 0.00 88 1011.0
20260509150955 25 176 4.8 9.7 0.00 0.00 0.00 87 1011.0
20260509150454 25 192 8.0 12.9 0.00 0.00 0.00 87 1011.0
20260509145954 25 187 6.4 11.3 0.00 0.00 0.00 87 1011.0
20260509145454 25 180 8.0 14.5 0.00 0.00 0.00 87 1011.0
20260509144954 25 176 6.4 12.9 0.00 0.00 0.00 87 1011.0
20260509144457 25 183 6.4 9.7 0.00 0.00 0.00 87 1011.0
20260509143954 25 176 6.4 9.7 0.00 0.00 0.00 87 1010.0
20260509143454 25 194 3.2 8.0 0.00 0.00 0.00 86 1011.0
20260509142954 25 178 6.4 11.3 0.00 0.00 0.00 86 1010.0
20260509142454 25 181 4.8 11.3 0.00 0.00 0.00 87 1010.0
20260509141955 25 189 6.4 11.3 0.00 0.00 0.00 88 1010.0
20260509141454 25 192 3.2 4.8 0.00 0.00 0.00 89 1010.0
20260509140955 24 173 3.2 6.4 0.00 0.00 0.00 90 1010.0
20260509140454 24 206 1.6 4.8 0.00 0.00 0.00 91 1010.0
20260509135955 24 182 4.8 9.7 0.00 0.00 0.00 92 1010.0
20260509135454 23 218 1.6 4.8 0.00 0.00 0.00 93 1010.0
20260509134954 23 171 1.6 3.2 0.00 0.00 0.00 95 1010.0
20260509134454 23 198 1.6 4.8 0.00 0.00 0.00 97 1010.0
20260509133954 23 191 3.2 4.8 0.00 0.00 0.00 98 1010.0
20260509133454 22 185 3.2 6.4 0.00 0.00 0.00 99 1010.0
20260509132954 22 179 4.8 6.4 0.00 0.00 0.00 99 1010.0
20260509132454 22 182 4.8 8.0 0.00 0.00 0.00 99 1010.0
20260509131955 22 201 1.6 3.2 0.00 0.00 0.00 99 1011.0
20260509131454 22 182 3.2 8.0 0.00 0.00 0.00 99 1011.0
20260509130954 22 193 1.6 3.2 0.00 0.00 0.00 99 1011.0
20260509130454 22 190 3.2 6.4 0.00 0.00 0.00 99 1011.0
20260509125954 22 179 3.2 6.4 0.00 0.00 0.00 99 1011.0
20260509125454 22 184 1.6 4.8 0.00 0.00 0.00 100 1011.0
20260509124954 22 172 1.6 4.8 0.00 0.00 0.00 99 1011.0
20260509124455 22 224 1.6 3.2 0.00 0.00 0.00 99 1011.0
20260509123954 22 207 1.6 1.6 0.00 0.00 0.00 99 1011.0
20260509123454 22 219 0.0 1.6 0.00 0.00 0.00 99 1011.0
20260509122954 21 0 0.0 0.0 0.00 0.00 0.00 99 1011.0
20260509122454 21 6 0.0 1.6 0.00 0.00 0.00 99 1011.0
20260509121954 21 308 0.0 3.2 0.00 0.00 0.00 99 1011.0
20260509121454 21 245 1.6 4.8 0.00 0.00 0.00 99 1011.0
20260509120954 21 325 1.6 3.2 0.00 0.00 0.00 99 1011.0
20260509120454 21 303 0.0 3.2 0.00 0.00 0.00 99 1011.0
20260509115955 21 152 0.0 1.6 0.00 0.00 0.00 99 1011.0
20260509115454 21 0 0.0 0.0 0.00 0.00 0.00 99 1011.0
20260509114954 22 0 0.0 0.0 0.00 0.00 0.00 99 1011.0
20260509114455 22 0 0.0 0.0 0.00 0.00 0.00 99 1011.0
20260509113955 22 108 0.0 1.6 0.00 0.00 0.00 99 1011.0
20260509113454 22 194 0.0 3.2 0.00 0.00 0.00 99 1011.0
20260509112954 22 0 0.0 0.0 0.00 0.00 0.00 99 1012.0
20260509112454 22 220 0.0 0.0 0.00 0.00 0.00 99 1012.0
20260509111954 22 295 0.0 1.6 0.00 0.00 0.00 99 1012.0
20260509111454 22 351 0.0 1.6 0.00 0.00 0.00 99 1012.0
20260509110954 22 358 0.0 4.8 0.00 0.00 0.00 99 1012.0
20260509110454 22 353 1.6 3.2 0.00 0.00 0.00 99 1012.0
20260509105954 22 329 0.0 3.2 0.00 0.00 0.00 99 1012.0
20260509105455 22 296 3.2 4.8 0.00 0.00 0.00 99 1012.0
20260509104954 22 322 0.0 3.2 0.00 0.00 0.00 99 1012.0
20260509104454 22 321 0.0 1.6 0.00 0.00 0.00 99 1012.0
20260509103954 22 285 0.0 1.6 0.00 0.00 0.00 99 1012.0
20260509103455 22 337 0.0 0.0 0.00 0.00 0.00 99 1012.0
20260509102957 22 297 0.0 1.6 0.00 0.00 0.00 99 1012.0
20260509102454 22 0 0.0 0.0 0.00 0.00 0.00 99 1012.0
20260509101954 22 345 0.0 1.6 0.00 0.00 0.00 99 1012.0
20260509101454 22 1 0.0 0.0 0.00 0.00 0.00 99 1012.0
20260509100954 22 8 0.0 1.6 0.00 0.00 0.00 99 1012.0
20260509100454 22 322 0.0 3.2 0.00 0.00 0.00 99 1012.0
20260509095954 22 339 0.0 1.6 0.00 0.00 0.00 99 1011.0
20260509095454 22 206 0.0 0.0 0.00 0.00 0.00 99 1011.0
20260509094954 22 39 0.0 1.6 0.00 0.00 0.00 99 1011.0
20260509094454 22 0 0.0 0.0 0.00 0.00 0.00 99 1011.0
20260509093954 22 0 0.0 0.0 0.00 0.00 0.00 99 1011.0
20260509093454 22 324 0.0 1.6 0.00 0.00 0.00 99 1011.0
20260509092954 22 220 0.0 3.2 0.00 0.00 0.00 99 1010.0
20260509092453 22 223 0.0 1.6 0.00 0.00 0.00 99 1010.0
20260509091955 22 208 0.0 1.6 0.00 0.00 0.00 99 1010.0
20260509091454 22 224 0.0 1.6 0.00 0.00 0.00 99 1010.0
20260509090954 22 69 0.0 1.6 0.00 0.00 0.00 98 1010.0
20260509090453 22 190 0.0 1.6 0.00 0.00 0.00 98 1010.0
20260509085954 22 227 0.0 1.6 0.00 0.00 0.00 98 1010.0
20260509085454 22 147 0.0 0.0 0.00 0.00 0.00 98 1010.0
20260509084955 22 306 0.0 0.0 0.00 0.00 0.00 98 1011.0
20260509084454 22 0 0.0 0.0 0.00 0.00 0.00 98 1011.0
20260509083954 22 34 0.0 0.0 0.00 0.00 0.00 98 1011.0
20260509083454 22 0 0.0 0.0 0.00 0.00 0.00 98 1011.0
20260509082954 22 45 0.0 3.2 0.00 0.00 0.00 98 1011.0
20260509082454 22 108 0.0 1.6 0.00 0.00 0.00 98 1011.0
20260509081954 22 234 0.0 1.6 0.00 0.00 0.00 98 1011.0
20260509081454 22 215 0.0 3.2 0.00 0.00 0.00 98 1011.0
20260509080954 22 327 0.0 1.6 0.00 0.00 0.00 98 1011.0
20260509080454 22 239 0.0 0.0 0.00 0.00 0.00 98 1011.0
20260509075954 22 78 0.0 0.0 0.00 0.00 0.00 98 1011.0
20260509075454 22 55 0.0 0.0 0.00 0.00 0.00 98 1011.0
20260509074955 22 56 0.0 1.6 0.00 0.00 0.00 97 1011.0
20260509074454 22 57 0.0 1.6 0.00 0.00 0.00 97 1011.0
20260509073954 22 84 0.0 1.6 0.00 0.00 0.00 97 1011.0
20260509073454 22 69 0.0 1.6 0.00 0.00 0.00 97 1011.0
20260509072955 22 46 0.0 1.6 0.00 0.00 0.00 97 1011.0
20260509072453 22 88 1.6 3.2 0.00 0.00 0.00 97 1011.0
20260509071954 22 57 0.0 1.6 0.00 0.00 0.00 97 1012.0
20260509071454 22 150 0.0 1.6 0.00 0.00 0.00 97 1012.0
20260509070954 22 227 0.0 1.6 0.00 0.00 0.00 97 1012.0
20260509070455 22 0 0.0 0.0 0.00 0.00 0.00 96 1012.0
20260509065954 22 293 0.0 1.6 0.00 0.00 0.00 96 1012.0
20260509065454 22 70 1.6 3.2 0.00 0.00 0.00 96 1011.0
20260509064956 22 84 0.0 1.6 0.00 0.00 0.00 96 1011.0
20260509064454 22 82 1.6 4.8 0.00 0.00 0.00 96 1011.0
20260509063954 22 111 1.6 3.2 0.00 0.00 0.00 96 1011.0
20260509063454 22 77 0.0 1.6 0.00 0.00 0.00 95 1011.0
20260509062954 22 190 0.0 1.6 0.00 0.00 0.00 95 1011.0
20260509062454 22 96 3.2 4.8 0.00 0.00 0.00 95 1011.0
20260509061954 22 86 1.6 4.8 0.00 0.00 0.00 95 1011.0
20260509061454 22 206 0.0 1.6 0.00 0.00 0.00 94 1011.0
20260509060954 22 0 0.0 0.0 0.00 0.00 0.00 94 1011.0
20260509060454 22 85 3.2 6.4 0.00 0.00 0.00 94 1011.0
20260509055954 22 100 1.6 3.2 0.00 0.00 0.00 94 1011.0
20260509055458 22 104 3.2 4.8 0.00 0.00 0.00 93 1011.0
20260509054954 22 124 3.2 6.4 0.00 0.00 0.00 93 1011.0
20260509054455 23 194 3.2 4.8 0.00 0.00 0.00 93 1011.0
20260509053954 23 158 3.2 4.8 0.00 0.00 0.00 92 1010.0
20260509053454 23 130 3.2 9.7 0.00 0.00 0.00 92 1010.0
20260509052954 23 132 1.6 4.8 0.00 0.00 0.00 91 1010.0
20260509052454 23 103 1.6 8.0 0.00 0.00 0.00 91 1010.0
20260509051954 23 171 1.6 3.2 0.00 0.00 0.00 91 1010.0
20260509051454 23 193 0.0 3.2 0.00 0.00 0.00 91 1010.0
20260509050954 23 144 0.0 1.6 0.00 0.00 0.00 90 1010.0
20260509050454 23 113 1.6 3.2 0.00 0.00 0.00 90 1010.0
20260509045954 23 106 1.6 3.2 0.00 0.00 0.00 90 1010.0
20260509045454 23 200 0.0 1.6 0.00 0.00 0.00 90 1010.0
20260509044954 23 81 1.6 3.2 0.00 0.00 0.00 90 1010.0
20260509044456 23 100 1.6 4.8 0.00 0.00 0.00 90 1010.0
20260509043954 23 151 1.6 4.8 0.00 0.00 0.00 90 1010.0
20260509043454 23 221 0.0 1.6 0.00 0.00 0.00 90 1010.0
20260509042954 23 88 0.0 3.2 0.00 0.00 0.00 89 1010.0
20260509042454 23 109 1.6 6.4 0.00 0.00 0.00 89 1010.0
20260509041956 23 186 1.6 3.2 0.00 0.00 0.00 89 1010.0
20260509041455 23 174 1.6 3.2 0.00 0.00 0.00 89 1010.0
20260509040954 23 172 0.0 3.2 0.00 0.00 0.00 89 1010.0
20260509040454 23 84 0.0 1.6 0.00 0.00 0.00 89 1010.0
20260509035954 23 70 1.6 3.2 0.00 0.00 0.00 89 1010.0
20260509035454 23 0 0.0 0.0 0.00 0.00 0.00 90 1010.0
20260509034954 23 211 0.0 1.6 0.00 0.00 0.00 90 1010.0
20260509034454 23 129 0.0 1.6 0.00 0.00 0.00 90 1010.0
20260509033954 23 308 0.0 1.6 0.00 0.00 0.00 90 1010.0
20260509033454 22 96 1.6 3.2 0.00 0.00 0.00 90 1010.0
20260509032954 22 214 0.0 1.6 0.00 0.00 0.00 90 1010.0
20260509032457 22 70 0.0 3.2 0.00 0.00 0.00 90 1010.0
20260509031954 22 59 0.0 1.6 0.00 0.00 0.00 90 1010.0
20260509031455 23 0 0.0 0.0 0.00 0.00 0.00 89 1010.0
20260509030954 23 288 0.0 1.6 0.00 0.00 0.00 89 1010.0
20260509030459 23 196 0.0 3.2 0.00 0.00 0.00 88 1010.0
20260509025954 23 62 0.0 1.6 0.00 0.00 0.00 88 1010.0
20260509025455 23 88 0.0 3.2 0.00 0.00 0.00 88 1010.0
20260509024954 23 119 0.0 1.6 0.00 0.00 0.00 87 1010.0
20260509024454 23 73 0.0 1.6 0.00 0.00 0.00 87 1010.0
20260509023954 23 178 0.0 1.6 0.00 0.00 0.00 87 1010.0
20260509023455 23 94 0.0 3.2 0.00 0.00 0.00 87 1010.0
20260509022954 23 52 0.0 1.6 0.00 0.00 0.00 86 1010.0
20260509022455 23 55 0.0 1.6 0.00 0.00 0.00 86 1010.0
20260509021954 23 89 0.0 1.6 0.00 0.00 0.00 86 1010.0
20260509021454 23 64 0.0 1.6 0.00 0.00 0.00 85 1010.0
20260509020954 24 64 1.6 4.8 0.00 0.00 0.00 85 1010.0
20260509020454 24 121 1.6 3.2 0.00 0.00 0.00 84 1009.0
20260509015954 24 98 1.6 4.8 0.00 0.00 0.00 84 1009.0
20260509015455 24 96 0.0 3.2 0.00 0.00 0.00 84 1010.0
20260509014954 24 94 1.6 4.8 0.00 0.00 0.00 84 1009.0
20260509014454 24 121 1.6 3.2 0.00 0.00 0.00 83 1009.0
20260509013955 24 72 0.0 1.6 0.00 0.00 0.00 83 1009.0
20260509013454 25 76 3.2 9.7 0.00 0.00 0.00 82 1009.0
20260509012954 25 136 0.0 3.2 0.00 0.00 0.00 83 1009.0
20260509012454 25 128 1.6 6.4 0.00 0.00 0.00 83 1009.0
20260509011954 25 83 1.6 4.8 0.00 0.00 0.00 82 1009.0
20260509011454 25 99 1.6 3.2 0.00 0.00 0.00 82 1009.0
20260509010954 25 91 1.6 4.8 0.00 0.00 0.00 82 1009.0
20260509010454 25 70 3.2 4.8 0.00 0.00 0.00 82 1009.0
20260509005954 25 76 1.6 4.8 0.00 0.00 0.00 82 1009.0
20260509005454 25 93 1.6 6.4 0.00 0.00 0.00 82 1009.0
20260509004954 25 110 1.6 4.8 0.00 0.00 0.00 81 1009.0
20260509004454 25 81 1.6 4.8 0.00 0.00 0.00 81 1009.0
20260509003954 25 90 1.6 3.2 0.00 0.00 0.00 81 1009.0
20260509003454 25 83 3.2 6.4 0.00 0.00 0.00 80 1009.0
20260509002954 25 72 1.6 4.8 0.00 0.00 0.00 80 1009.0
20260509002454 25 98 3.2 4.8 0.00 0.00 0.00 80 1009.0
20260509001954 25 88 3.2 6.4 0.00 0.00 0.00 80 1009.0
20260509001454 25 91 3.2 4.8 0.00 0.00 0.00 79 1009.0
20260509000954 25 89 3.2 3.2 0.00 0.00 0.00 79 1009.0
20260509000455 25 98 1.6 3.2 0.00 0.00 0.00 79 1009.0
20260508235954 25 73 3.2 3.2 0.00 0.00 0.00 79 1009.0
20260508235454 25 64 1.6 3.2 0.00 0.00 0.00 78 1009.0
20260508234954 25 64 1.6 4.8 0.00 0.00 0.00 78 1009.0
20260508234454 25 76 1.6 6.4 0.00 0.00 0.00 78 1009.0
20260508233955 25 93 1.6 3.2 0.00 0.00 0.00 78 1009.0
20260508233454 25 84 3.2 8.0 0.00 0.00 0.00 78 1009.0
20260508232954 25 88 3.2 6.4 0.00 0.00 0.00 78 1009.0
20260508232454 25 112 0.0 3.2 0.00 0.00 0.00 78 1009.0
20260508231955 25 76 0.0 1.6 0.00 0.00 0.00 78 1009.0
20260508231454 25 73 3.2 3.2 0.00 0.00 0.00 78 1009.0
20260508230954 25 68 0.0 1.6 0.00 0.00 0.00 78 1009.0
20260508230454 25 79 3.2 8.0 0.00 0.00 0.00 77 1009.0
20260508225954 25 84 3.2 4.8 0.00 0.00 0.00 77 1009.0
20260508225454 25 74 1.6 6.4 0.00 0.00 0.00 77 1009.0
20260508224954 25 109 1.6 4.8 0.00 0.00 0.00 78 1009.0
20260508224454 26 67 1.6 3.2 0.00 0.00 0.00 77 1009.0
20260508223954 26 71 3.2 6.4 0.00 0.00 0.00 77 1009.0
20260508223454 26 88 3.2 9.7 0.00 0.00 0.00 76 1009.0